| time (UTC) | temp F | wind direction | speed knots | gust knots | rain 1hr in | rain 24hr in | rain mn in | humidity % | barometer mb |
| 20260906193023 | 96 | 176 | 0.9 | 4.3 | 0.00 | 0.00 | 0.00 | 39 | 1009.0 |
| 20260906191520 | 95 | 148 | 3.5 | 7.8 | 0.00 | 0.00 | 0.00 | 39 | 1009.2 |
| 20260906190020 | 95 | 83 | 2.6 | 7.0 | 0.00 | 0.00 | 0.00 | 40 | 1009.5 |
| 20260906184517 | 94 | 109 | 3.5 | 8.7 | 0.00 | 0.00 | 0.00 | 40 | 1009.9 |
| 20260906183017 | 94 | 142 | 0.0 | 4.3 | 0.00 | 0.00 | 0.00 | 41 | 1010.2 |
| 20260906181519 | 93 | 32 | 0.9 | 5.2 | 0.00 | 0.00 | 0.00 | 41 | 1010.3 |
| 20260906180018 | 94 | 90 | 0.9 | 4.3 | 0.00 | 0.00 | 0.00 | 42 | 1010.6 |
| 20260906174513 | 94 | 89 | 1.7 | 8.7 | 0.00 | 0.00 | 0.00 | 41 | 1010.7 |
| 20260906173013 | 93 | 36 | 1.7 | 7.8 | 0.00 | 0.00 | 0.00 | 42 | 1011.1 |
| 20260906171512 | 93 | 313 | 0.9 | 6.1 | 0.00 | 0.00 | 0.00 | 42 | 1011.3 |
| 20260906170012 | 93 | 309 | 3.5 | 8.7 | 0.00 | 0.00 | 0.00 | 42 | 1011.5 |
| 20260906164510 | 93 | 43 | 0.9 | 7.0 | 0.00 | 0.00 | 0.00 | 42 | 1011.7 |
| 20260906163009 | 92 | 327 | 1.7 | 7.8 | 0.00 | 0.00 | 0.00 | 44 | 1011.7 |
| 20260906161507 | 90 | 292 | 2.6 | 7.8 | 0.00 | 0.00 | 0.00 | 45 | 1011.6 |
| 20260906160014 | 89 | 299 | 0.9 | 5.2 | 0.00 | 0.00 | 0.00 | 47 | 1011.3 |
| 20260906154508 | 90 | 13 | 3.5 | 13.0 | 0.00 | 0.00 | 0.00 | 47 | 1011.1 |
| 20260906153005 | 92 | 278 | 4.3 | 7.8 | 0.00 | 0.00 | 0.00 | 42 | 1011.1 |
| 20260906151504 | 92 | 298 | 1.7 | 5.2 | 0.00 | 0.00 | 0.00 | 43 | 1011.1 |
| 20260906150111 | 91 | 229 | 0.0 | 3.5 | 0.00 | 0.00 | 0.00 | 46 | 1011.1 |
| 20260906144556 | 89 | 223 | 0.9 | 3.5 | 0.00 | 0.00 | 0.00 | 48 | 1011.1 |
| 20260906143055 | 87 | 210 | 1.7 | 4.3 | 0.00 | 0.00 | 0.00 | 51 | 1011.1 |
| 20260906141550 | 86 | 231 | 2.6 | 5.2 | 0.00 | 0.00 | 0.00 | 52 | 1011.1 |
| 20260906140055 | 84 | 231 | 3.5 | 6.1 | 0.00 | 0.00 | 0.00 | 55 | 1011.0 |
| 20260906134542 | 81 | 171 | 1.7 | 3.5 | 0.00 | 0.00 | 0.00 | 62 | 1011.0 |
| 20260906133106 | 78 | 136 | 0.0 | 3.5 | 0.00 | 0.00 | 0.00 | 67 | 1010.8 |
| 20260906131539 | 76 | 147 | 0.9 | 2.6 | 0.00 | 0.00 | 0.00 | 68 | 1010.6 |
| 20260906130038 | 75 | 165 | 0.9 | 4.3 | 0.00 | 0.00 | 0.00 | 71 | 1010.5 |
| 20260906124537 | 73 | 166 | 0.0 | 0.0 | 0.00 | 0.00 | 0.00 | 72 | 1010.2 |
| 20260906123037 | 73 | 166 | 0.0 | 0.0 | 0.00 | 0.00 | 0.00 | 73 | 1010.1 |
| 20260906121541 | 73 | 166 | 0.0 | 0.0 | 0.00 | 0.00 | 0.00 | 73 | 1009.7 |
| 20260906120038 | 73 | 166 | 0.0 | 0.0 | 0.00 | 0.00 | 0.00 | 73 | 1009.5 |
| 20260906114544 | 73 | 166 | 0.0 | 0.0 | 0.00 | 0.00 | 0.00 | 73 | 1009.4 |
| 20260906113032 | 73 | 166 | 0.0 | 0.0 | 0.00 | 0.00 | 0.00 | 71 | 1009.0 |
| 20260906111530 | 73 | 166 | 0.0 | 0.9 | 0.00 | 0.00 | 0.00 | 71 | 1008.9 |
| 20260906110030 | 73 | 166 | 0.0 | 0.0 | 0.00 | 0.00 | 0.00 | 71 | 1008.9 |
| 20260906104529 | 74 | 166 | 0.0 | 0.0 | 0.00 | 0.00 | 0.00 | 70 | 1008.9 |
| 20260906103027 | 74 | 169 | 0.0 | 3.5 | 0.00 | 0.00 | 0.00 | 70 | 1008.9 |
| 20260906101527 | 74 | 181 | 0.9 | 3.5 | 0.00 | 0.00 | 0.00 | 70 | 1008.9 |
| 20260906100036 | 74 | 164 | 0.0 | 0.0 | 0.00 | 0.00 | 0.00 | 69 | 1008.9 |
| 20260906094528 | 74 | 155 | 0.0 | 0.9 | 0.00 | 0.00 | 0.00 | 69 | 1008.9 |
| 20260906093028 | 75 | 147 | 0.9 | 3.5 | 0.00 | 0.00 | 0.00 | 68 | 1008.8 |
| 20260906091525 | 75 | 136 | 0.0 | 0.9 | 0.00 | 0.00 | 0.00 | 68 | 1008.9 |
| 20260906090019 | 75 | 119 | 0.0 | 4.3 | 0.00 | 0.00 | 0.00 | 67 | 1008.9 |
| 20260906084519 | 75 | 113 | 0.0 | 3.5 | 0.00 | 0.00 | 0.00 | 67 | 1008.7 |
| 20260906083017 | 76 | 117 | 1.7 | 2.6 | 0.00 | 0.00 | 0.00 | 66 | 1008.7 |
| 20260906081519 | 76 | 138 | 0.9 | 3.5 | 0.00 | 0.00 | 0.00 | 66 | 1008.6 |
| 20260906080014 | 76 | 138 | 1.7 | 2.6 | 0.00 | 0.00 | 0.00 | 65 | 1008.8 |
| 20260906074512 | 77 | 136 | 0.0 | 1.7 | 0.00 | 0.00 | 0.00 | 64 | 1008.5 |
| 20260906073010 | 77 | 129 | 1.7 | 2.6 | 0.00 | 0.00 | 0.00 | 63 | 1008.7 |
| 20260906071510 | 77 | 171 | 0.9 | 1.7 | 0.00 | 0.00 | 0.00 | 63 | 1008.5 |
| 20260906070009 | 77 | 163 | 0.9 | 2.6 | 0.00 | 0.00 | 0.00 | 64 | 1008.3 |
| 20260906064508 | 77 | 181 | 1.7 | 2.6 | 0.00 | 0.00 | 0.00 | 64 | 1008.3 |
| 20260906063005 | 78 | 174 | 0.0 | 0.0 | 0.00 | 0.00 | 0.00 | 62 | 1008.3 |
| 20260906061502 | 79 | 165 | 0.0 | 3.5 | 0.00 | 0.00 | 0.00 | 61 | 1008.3 |
| 20260906060100 | 79 | 134 | 1.7 | 2.6 | 0.00 | 0.00 | 0.00 | 61 | 1008.3 |
| 20260906054605 | 79 | 139 | 0.0 | 0.9 | 0.00 | 0.00 | 0.00 | 60 | 1008.3 |
| 20260906053101 | 79 | 163 | 0.0 | 0.0 | 0.00 | 0.00 | 0.00 | 60 | 1008.3 |
| 20260906051611 | 80 | 134 | 0.0 | 0.0 | 0.00 | 0.00 | 0.00 | 60 | 1008.3 |
| 20260906050053 | 80 | 132 | 0.9 | 1.7 | 0.00 | 0.00 | 0.00 | 59 | 1008.2 |
| 20260906044601 | 81 | 135 | 0.9 | 1.7 | 0.00 | 0.00 | 0.00 | 59 | 1008.2 |
| 20260906043052 | 81 | 182 | 1.7 | 3.5 | 0.00 | 0.00 | 0.00 | 58 | 1008.2 |
| 20260906041553 | 81 | 169 | 1.7 | 2.6 | 0.00 | 0.00 | 0.00 | 57 | 1008.2 |
| 20260906040128 | 83 | 178 | 3.5 | 5.2 | 0.00 | 0.00 | 0.00 | 55 | 1008.1 |
| 20260906034603 | 83 | 159 | 1.7 | 4.3 | 0.00 | 0.00 | 0.00 | 55 | 1008.1 |
| 20260906033104 | 84 | 146 | 0.9 | 3.5 | 0.00 | 0.00 | 0.00 | 54 | 1007.8 |
| 20260906031550 | 85 | 155 | 0.9 | 2.6 | 0.00 | 0.00 | 0.00 | 52 | 1007.7 |
| 20260906030050 | 85 | 150 | 0.9 | 4.3 | 0.00 | 0.00 | 0.00 | 51 | 1007.7 |
| 20260906024600 | 86 | 135 | 1.7 | 4.3 | 0.00 | 0.00 | 0.00 | 50 | 1007.5 |
| 20260906023059 | 87 | 159 | 1.7 | 7.0 | 0.00 | 0.00 | 0.00 | 49 | 1007.1 |
| 20260906021548 | 88 | 153 | 4.3 | 7.0 | 0.00 | 0.00 | 0.00 | 48 | 1007.1 |
| 20260906020047 | 88 | 171 | 3.5 | 5.2 | 0.00 | 0.00 | 0.00 | 48 | 1007.1 |
| 20260906014548 | 89 | 151 | 3.5 | 7.8 | 0.00 | 0.00 | 0.00 | 47 | 1006.8 |
| 20260906013047 | 90 | 172 | 5.2 | 7.8 | 0.00 | 0.00 | 0.00 | 46 | 1006.6 |
| 20260906011546 | 90 | 159 | 2.6 | 5.2 | 0.00 | 0.00 | 0.00 | 46 | 1006.5 |
| 20260906010046 | 91 | 132 | 3.5 | 5.2 | 0.00 | 0.00 | 0.00 | 45 | 1006.5 |
| 20260906004546 | 92 | 133 | 3.5 | 5.2 | 0.00 | 0.00 | 0.00 | 44 | 1006.5 |
| 20260906003045 | 92 | 125 | 1.7 | 4.3 | 0.00 | 0.00 | 0.00 | 43 | 1006.6 |
| 20260906001545 | 93 | 144 | 2.6 | 5.2 | 0.00 | 0.00 | 0.00 | 42 | 1006.5 |
| 20260906000044 | 94 | 138 | 3.5 | 5.2 | 0.00 | 0.00 | 0.00 | 41 | 1006.3 |
| 20260905234547 | 95 | 188 | 2.6 | 6.1 | 0.00 | 0.00 | 0.00 | 40 | 1006.3 |
| 20260905233054 | 96 | 129 | 4.3 | 8.7 | 0.00 | 0.00 | 0.00 | 38 | 1006.4 |
| 20260905231542 | 96 | 127 | 2.6 | 9.6 | 0.00 | 0.00 | 0.00 | 38 | 1006.5 |
| 20260905230041 | 97 | 167 | 4.3 | 8.7 | 0.00 | 0.00 | 0.00 | 38 | 1006.5 |
| 20260905224608 | 97 | 138 | 4.3 | 7.8 | 0.00 | 0.00 | 0.00 | 37 | 1006.4 |
| 20260905223044 | 98 | 175 | 4.3 | 9.6 | 0.00 | 0.00 | 0.00 | 36 | 1006.4 |
| 20260905221540 | 98 | 153 | 4.3 | 7.8 | 0.00 | 0.00 | 0.00 | 37 | 1006.4 |
| 20260905220039 | 99 | 117 | 5.2 | 9.6 | 0.00 | 0.00 | 0.00 | 36 | 1006.2 |
| 20260905214544 | 100 | 126 | 4.3 | 12.2 | 0.00 | 0.00 | 0.00 | 35 | 1006.0 |
| 20260905213034 | 102 | 121 | 5.2 | 9.6 | 0.00 | 0.00 | 0.00 | 34 | 1006.2 |
| 20260905211543 | 100 | 148 | 2.6 | 13.0 | 0.00 | 0.00 | 0.00 | 35 | 1006.3 |
| 20260905210042 | 101 | 128 | 3.5 | 17.4 | 0.00 | 0.00 | 0.00 | 34 | 1006.3 |
| 20260905204532 | 103 | 127 | 6.1 | 15.6 | 0.00 | 0.00 | 0.00 | 34 | 1006.3 |
| 20260905203032 | 101 | 213 | 5.2 | 13.0 | 0.00 | 0.00 | 0.00 | 33 | 1006.4 |
| 20260905201531 | 101 | 134 | 5.2 | 12.2 | 0.00 | 0.00 | 0.00 | 34 | 1006.7 |
| 20260905200030 | 99 | 155 | 5.2 | 13.0 | 0.00 | 0.00 | 0.00 | 37 | 1006.9 |
| 20260905194529 | 101 | 169 | 8.7 | 13.9 | 0.00 | 0.00 | 0.00 | 35 | 1007.0 |